Regional Weather Roundup
Issued by NWS

Home | Current Version | Previous Version | Text Only | Print | Product List | Glossary On
Versions: 1 2 3 4 5 6 7 8 9 10 11 12 13 14 15 16 17 18 19 20 21 22 23 24 25 26 27 28 29 30 31 32 33 34 35 36 37 38 39 40 41 42 43 44 45 46 47 48 49 50
000
ASUS43 KBIS 171320
RWRND

NORTH DAKOTA REGIONAL WEATHER ROUNDUP
NATIONAL WEATHER SERVICE BISMARCK ND
700 AM CST WED DEC 17 2014

NOTE: "FAIR" INDICATES FEW OR NO CLOUDS BELOW 12,000 FEET WITH NO
SIGNIFICANT WEATHER AND/OR OBSTRUCTIONS TO VISIBILITY.


NDZ001>003-009>011-017-171400-
NORTHWEST NORTH DAKOTA

CITY           SKY/WX    TMP DP  RH WIND       PRES   REMARKS
WILLISTON      CLOUDY    19  13  77 SE8       30.17S WCI   9
MINOT          CLOUDY     7   3  84 VRB5      30.26S WCI  -2
MINOT AFB      CLOUDY     9   8  98 SE6       30.27R WCI  -1
$$

NDZ018>021-031>035-040>046-171400-
SOUTHWEST NORTH DAKOTA

CITY           SKY/WX    TMP DP  RH WIND       PRES   REMARKS
BISMARCK       CLOUDY    14  10  84 SE8       30.29R WCI   3
DICKINSON      CLOUDY    16  11  80 SE14      30.12S WCI   2
GARRISON         N/A     15  12  88 S9        30.23S WCI   3
HETTINGER ARPT CLOUDY    15  12  88 SE14      30.13S WCI   0
$$

NDZ004>008-012>016-024-026-027-054-171400-
NORTHEAST NORTH DAKOTA

CITY           SKY/WX    TMP DP  RH WIND       PRES   REMARKS
GRAND FORKS    PTCLDY     1  -2  87 N3        30.37S
GRND FRKS AFB  PTCLDY     1  -1  94 NW3       30.37S
DEVILS LAKE    MOCLDY     0 -11  60 CALM      30.30R
$$

NDZ022-023-025-028>030-036>039-047>053-171400-
SOUTHEAST NORTH DAKOTA

CITY           SKY/WX    TMP DP  RH WIND       PRES   REMARKS
FARGO          CLEAR      4  -1  80 N6        30.37S WCI  -7
JAMESTOWN      PTCLDY     0  -4  83 W7        30.32R WCI -13
$$



USA.gov is the U.S. government's official web portal to all federal, state and local government web resources and services.